Lewiston, WA

12:28 PM PDT on July 27, 2017 (GMT -0700)
Lewiston-Nez Perce County

Weather History for KLWS - August, 2014

Change the Weather History Date:

Saturday, August 30, 2014

  Actual Average Record
Temperature  
Mean Temperature 73 °F 70 °F  
Max Temperature 81 °F 85 °F 104 °F (1929)
Min Temperature 64 °F 56 °F 42 °F (1965)
Degree Days  
Heating Degree Days 0 1  
Month to date heating degree days 0 4  
Since 1 June heating degree days 41 81  
Since 1 July heating degree days 0 11  
Cooling Degree Days 8 6  
Month to date cooling degree days 365 280  
Year to date cooling degree days 966 710  
Since 1 June cooling degree days 938 678  
Growing Degree Days 22 (Base 50)    
Moisture  
Dew Point 46 °F    
Average Humidity 43    
Maximum Humidity 56    
Minimum Humidity 30    
Precipitation  
Precipitation T in 0.02 in 0.89 in (1977)
Month to date precipitation 1.17 0.66  
Year to date precipitation 7.67 8.50  
Snow  
Snow 0.00 in 0.00 in T in (1954)
Month to date snowfall 0.0 0.0  
Since 1 June snowfall 0.0 0.0  
Since 1 July snowfall 0.0 0.0  
Snow Depth 0.00 in    
Sea Level Pressure  
Sea Level Pressure 29.83 in    
Wind  
Wind Speed 7 mph (West)    
Max Wind Speed 25 mph    
Max Gust Speed 34 mph    
Visibility 10 miles    
Events      
T = Trace of Precipitation, MM = Missing Value Source: NWS Daily Summary

Daily Weather History Graph

Daily Weather History Graph

Search for Another Location

Airport or City:

Trip Planner

Search our weather history database for the weather conditions in past years. The results will help you decide how hot, cold, wet, or windy it might be!

Date:

Astronomy

Aug. 30, 2014 Rise Set
Actual Time 6:05 AM PDT 7:30 PM PDT
Civil Twilight 5:34 AM PDT 8:01 PM PDT
Nautical Twilight 4:56 AM PDT 8:39 PM PDT
Astronomical Twilight 4:15 AM PDT 9:19 PM PDT
Moon 11:16 AM PDT (8/30) 9:47 PM PDT (8/30)
Length of Visible Light 14h 27m
Length of Day
13h 24m
Waxing Crescent, 24% of the Moon is Illuminated
Aug 30
Waxing Crescent
Sep 2
First Quarter
Sep 8
Full
Sep 15
Last Quarter
Sep 23
New

Hourly Weather History & Observations

Time (PDT) Temp. Dew Point Humidity Pressure Visibility Wind Dir Wind Speed Gust Speed Precip Events Conditions
12:56 AM 70.0 °F 44.1 °F 39% 29.84 in 10.0 mi WNW 15.0 mph - N/A   Clear
1:56 AM 68.0 °F 44.1 °F 42% 29.84 in 10.0 mi NW 8.1 mph - N/A   Clear
2:56 AM 66.9 °F 44.1 °F 44% 29.85 in 10.0 mi Calm Calm - N/A   Clear
3:56 AM 68.0 °F 44.1 °F 42% 29.84 in 10.0 mi Calm Calm - N/A   Partly Cloudy
4:56 AM 66.0 °F 46.0 °F 48% 29.85 in 10.0 mi SW 4.6 mph - N/A   Clear
5:56 AM 66.0 °F 45.0 °F 47% 29.85 in 10.0 mi WNW 3.5 mph - N/A   Partly Cloudy
6:56 AM 64.0 °F 48.0 °F 56% 29.87 in 10.0 mi Calm Calm - N/A   Mostly Cloudy
7:56 AM 64.9 °F 46.9 °F 52% 29.87 in 10.0 mi Calm Calm - N/A   Partly Cloudy
8:56 AM 70.0 °F 46.0 °F 42% 29.87 in 10.0 mi Calm Calm - N/A   Clear
9:56 AM 72.0 °F 46.0 °F 40% 29.87 in 10.0 mi North 4.6 mph - N/A   Clear
10:56 AM 73.9 °F 46.0 °F 37% 29.86 in 10.0 mi Calm Calm - N/A   Mostly Cloudy
11:56 AM 75.9 °F 46.0 °F 35% 29.84 in 10.0 mi Variable 3.5 mph - N/A   Overcast
12:56 PM 77.0 °F 46.4 °F 34% 29.85 in 10.0 mi NW 9.2 mph - N/A   Clear
1:56 PM 78.1 °F 45.0 °F 31% 29.81 in 10.0 mi East 3.5 mph - N/A   Clear
2:56 PM 78.1 °F 45.0 °F 31% 29.79 in 10.0 mi Variable 4.6 mph - N/A   Partly Cloudy
3:56 PM 81.0 °F 46.9 °F 30% 29.78 in 10.0 mi NNW 16.1 mph 21.9 mph 0.00 in   Scattered Clouds
4:56 PM 78.1 °F 46.0 °F 32% 29.77 in 10.0 mi NW 15.0 mph 20.7 mph N/A   Mostly Cloudy
5:56 PM 75.0 °F 46.9 °F 37% 29.78 in 10.0 mi West 20.7 mph 31.1 mph N/A   Clear
6:56 PM 72.0 °F 48.9 °F 44% 29.79 in 10.0 mi WNW 9.2 mph - N/A   Scattered Clouds
7:56 PM 71.1 °F 48.0 °F 44% 29.83 in 10.0 mi Variable 5.8 mph - N/A   Overcast
8:56 PM 69.1 °F 48.0 °F 47% 29.83 in 10.0 mi South 9.2 mph - N/A   Partly Cloudy
9:56 PM 68.0 °F 48.0 °F 49% 29.84 in 10.0 mi South 12.7 mph - N/A   Overcast
10:56 PM 64.9 °F 48.0 °F 54% 29.85 in 10.0 mi SSW 8.1 mph - N/A   Clear
11:56 PM 64.0 °F 48.0 °F 56% 29.86 in 10.0 mi South 10.4 mph - N/A   Clear